Showing default

TOPEX/POSEIDON, 22076

Orbit data source: Space-Track

TOPEX/POSEIDON, 22076 is an American payload satellite in LEO that was launched on Mon, 10 Aug 1992 UTC via an ARIANE 42P launch vehicle from the French Guiana (FRGUI). Payload-class satellites include a variety of spacecraft equipped with specific instruments for various scientific and technological missions. These include communications satellites like Starlink; space stations such as the ISS; scientific satellites like the Hubble; Earth observation satellites from companies like Planet Labs, Umbra, and HawkEye 360; GPS; miniature CubeSats for education and research; and military/defense satellites.

Loading next visibility...
Identifier
22076, 1992-052A
Orbit
LEO
Country
Flag of USUS
Related business
Manufacturer
Fairchild
Mission
Non-operational Civil Science
Bus & Motor
MMS, Unknown motor
Mass
2,402 kg wet, 2,185 kg dry
Launch date (UTC)
1992-08-10 (33 years ago)
Launch vehicle
ARIANE 42P
Launch site
French Guiana (FRGUI)
Object type
Payload
Rocket body
Debris
Shape & HBR
Hex Poly + 1 Pan, 6.8 m
Radar Cross Section
20.954 m², Large (>1 m²)

Expand to show TLE details & history
Last TLE update: 21 hours ago

TLE from 21 hours ago
0 TOPEX/POSEIDON
1 22076U 92052A   25306.23380275 -.00000058  00000-0  15333-4 0  9994
2 22076  66.0403 243.6953 0007828 271.4458 193.1831 12.81086703554417
Epoch: 2025-11-02T05:36Z
TLE epoch observation values (Epoch: 2025-11-02T05:36:40.557Z)
Latitude
62.27359°
Longitude
-119.50155°
Altitude
1,352.784 km
Speed
7.185 km/s
True Right ascension
00h 25m 40s
True Declination
62° 08' 34"
Sunlit
Object was in full shadow at epoch
Visualization orbit readout
Latitude
Unknown
Longitude
Unknown
Altitude
Unknown
Speed
Unknown
Apparent Right ascension
Unknown
Apparent Declination
Unknown
Sunlit
N/A
Visualization observer readout
Local Sidereal Time
22:28:39
Azimuth
Unknown
Elevation
Unknown
Doppler factor
Unknown
Orbital elements
Apogee altitude
1,341.705 km
Perigee altitude
1,329.628 km
Semi-major axis
7,713.804 km
Eccentricity
0.00078
Inclination
66.0403°
RAAN
243.6953°
Arg. of periapsis
271.4458°
True anomaly
193.16266°
Mean anomaly
193.1831°
Eccentric anomaly
193.17288°
Mean motion
3.20361 °/min
Orbital period
112.37 mins
BSTAR
0.000015333
Loading maneuver chart data...
Computing Atmospheric mass density...
Loading historical data...
Loading historical data...
Loading historical data...
Loading historical data...
Loading historical data...
Loading historical data...
Loading historical data...

Documentation

Showing up to 5 results
|